Date String (YYYY-MM-DD hh:mm:ss) UTC,Instrument flags,Ambient pressure (hPa),Sample flow (lpm),Bypass flow (lpm),Sample temperature (°C),Ambient temperature (°C),ASC tube jacket temperature (°C),LED temperature (°C),Box temperature (°C),Sample RH (%),Span deviation,Mass concentration (μg/m³),Mass concentration (μg/m³),Mass concentration (μg/m³)
DateTimeUTC,F1_M11,P_M11,Q1_M11,Q2_M11,T1_M11,T2_M11,T3_M11,T4_M11,T5_M11,U1_M11,ZSPAN_M11,X0_M11,X2_M11,X1_M11
2022-11-05 01:00:00,,0818.8,5.01,0.00,25.7,24.1,00.0,34.5,27.6,11.4,-000.2,0011.69,0007.20,0006.36
2022-11-05 01:01:00,,0818.8,5.01,0.00,25.7,24.1,00.0,34.5,27.5,11.4,-000.3,0011.66,0007.16,0006.33
2022-11-05 01:02:00,,0818.8,5.00,0.00,25.7,24.1,00.0,34.5,27.5,11.5,-000.4,0011.34,0007.02,0006.28
2022-11-05 01:03:00,,0818.8,5.00,0.00,25.7,24.0,00.0,34.5,27.5,11.6,-000.7,0011.15,0006.94,0006.26
2022-11-05 01:04:00,,0818.8,5.00,0.00,25.6,24.0,00.0,34.5,27.5,11.8,-001.1,0011.10,0006.96,0006.28
2022-11-05 01:05:00,,0818.9,5.00,0.00,25.6,24.0,00.0,34.5,27.5,11.7,-001.2,0010.62,0006.96,0006.29
2022-11-05 01:06:00,,0818.9,5.00,0.00,25.6,24.0,00.0,34.5,27.5,11.6,-001.3,0010.36,0006.88,0006.26
2022-11-05 01:07:00,,0818.9,5.00,0.00,25.6,23.9,00.0,34.5,27.4,11.6,-001.4,0010.33,0006.77,0006.22
2022-11-05 01:08:00,,0818.9,4.99,0.00,25.6,23.9,00.0,34.4,27.3,11.5,-001.2,0010.19,0006.63,0006.14
2022-11-05 01:09:00,,0818.9,4.99,0.00,25.6,23.9,00.0,34.4,27.4,11.6,-000.9,0009.91,0006.58,0006.11
2022-11-05 01:10:00,,0818.9,5.00,0.00,25.5,23.9,00.0,34.4,27.4,11.9,-000.5,0009.62,0006.57,0006.15
2022-11-05 01:11:00,,0818.9,5.00,0.00,25.5,23.9,00.0,34.4,27.4,11.9,-000.4,0009.66,0006.60,0006.19
2022-11-05 01:12:00,,0818.9,5.01,0.00,25.5,23.9,00.0,34.4,27.4,11.7,-000.5,0009.72,0006.62,0006.22
2022-11-05 01:13:00,,0818.9,5.01,0.00,25.5,23.9,00.0,34.4,27.3,11.8,-000.8,0009.84,0006.69,0006.28
2022-11-05 01:14:00,,0819.0,5.00,0.00,25.5,23.9,00.0,34.4,27.3,11.8,-001.1,0009.97,0006.75,0006.33
2022-11-05 01:15:00,,0819.0,5.00,0.00,25.5,23.8,00.0,34.4,27.3,11.8,-000.7,0010.41,0006.72,0006.33
2022-11-05 01:16:00,,0818.9,5.00,0.00,25.5,23.9,00.0,34.3,27.3,11.8,-000.3,0010.40,0006.73,0006.35
2022-11-05 01:17:00,,0818.9,5.00,0.00,25.5,23.9,00.0,34.3,27.4,10.4,-000.2,0010.44,0006.69,0006.32
2022-11-05 01:18:00,,0818.9,5.00,0.00,25.5,23.9,00.0,34.3,27.3,10.6,0000.2,0010.17,0006.63,0006.26
2022-11-05 01:19:00,,0818.9,4.99,0.00,25.5,23.9,00.0,34.3,27.3,10.3,0000.3,0009.90,0006.58,0006.21
2022-11-05 01:20:00,,0819.0,5.01,0.00,25.5,23.9,00.0,34.3,27.3,10.7,0000.0,0010.81,0006.45,0006.08
2022-11-05 01:21:00,,0818.9,5.00,0.00,25.5,23.8,00.0,34.3,27.3,11.6,-000.4,0011.21,0006.43,0006.06
2022-11-05 01:22:00,,0818.9,4.99,0.00,25.5,23.8,00.0,34.3,27.3,11.8,-000.9,0011.24,0006.43,0006.06
2022-11-05 01:23:00,,0818.9,5.01,0.00,25.4,23.8,00.0,34.3,27.3,10.6,-001.1,0011.18,0006.37,0006.00
2022-11-05 01:24:00,,0818.9,5.01,0.00,25.4,23.8,00.0,34.3,27.3,11.3,-000.9,0010.95,0006.24,0005.91
2022-11-05 01:25:00,,0818.9,4.98,0.00,25.4,23.9,00.0,34.3,27.3,12.0,-000.4,0010.96,0006.25,0005.90
2022-11-05 01:26:00,,0818.9,5.01,0.00,25.5,23.9,00.0,34.3,27.3,12.0,-001.2,0010.54,0006.30,0005.93
2022-11-05 01:27:00,,0818.9,5.01,0.00,25.4,23.9,00.0,34.3,27.3,11.8,-001.7,0010.62,0006.30,0005.93
2022-11-05 01:28:00,,0818.9,5.01,0.00,25.5,23.9,00.0,34.2,27.3,10.9,-001.2,0010.54,0006.27,0005.87
2022-11-05 01:29:00,,0818.9,5.00,0.00,25.4,23.9,00.0,34.2,27.3,10.6,-000.8,0010.58,0006.30,0005.90
2022-11-05 01:30:00,,0818.9,5.00,0.00,25.4,23.9,00.0,34.2,27.3,10.0,-001.4,0010.57,0006.23,0005.81
2022-11-05 01:31:00,,0819.0,4.99,0.00,25.4,23.8,00.0,34.2,27.3,10.9,-001.6,0009.44,0006.27,0005.88
2022-11-05 01:32:00,,0818.9,5.00,0.00,25.4,23.8,00.0,34.2,27.3,11.5,-001.4,0009.01,0006.24,0005.86
2022-11-05 01:33:00,,0818.9,5.01,0.00,25.4,23.8,00.0,34.2,27.2,11.1,-001.1,0008.82,0006.11,0005.74
2022-11-05 01:34:00,,0818.9,4.98,0.00,25.4,23.8,00.0,34.2,27.3,11.0,-000.8,0008.97,0006.09,0005.71
2022-11-05 01:35:00,,0818.9,5.00,0.00,25.4,23.8,00.0,34.2,27.3,10.9,-000.7,0009.41,0006.10,0005.71
2022-11-05 01:36:00,,0818.8,5.01,0.00,25.4,23.8,00.0,34.2,27.3,10.8,-000.3,0009.43,0005.94,0005.60
2022-11-05 01:37:00,,0818.8,5.00,0.00,25.4,23.8,00.0,34.2,27.3,10.6,0000.4,0009.27,0005.79,0005.45
2022-11-05 01:38:00,,0818.8,4.99,0.00,25.4,23.8,00.0,34.2,27.3,10.3,0000.5,0009.05,0005.65,0005.29
2022-11-05 01:39:00,,0818.8,4.98,0.00,25.4,23.8,00.0,34.2,27.3,10.4,-000.2,0008.94,0005.58,0005.23
2022-11-05 01:40:00,,0818.8,5.00,0.00,25.4,23.8,00.0,34.2,27.3,10.3,-001.1,0008.89,0005.52,0005.18
2022-11-05 01:41:00,,0818.7,5.01,0.00,25.4,23.8,00.0,34.2,27.3,10.4,-001.0,0008.96,0005.58,0005.24
2022-11-05 01:42:00,,0818.8,5.01,0.00,25.4,23.9,00.0,34.2,27.3,10.5,-001.2,0009.05,0005.58,0005.22
2022-11-05 01:43:00,,0818.7,4.99,0.00,25.4,23.8,00.0,34.2,27.3,10.5,-000.9,0008.93,0005.46,0005.10
2022-11-05 01:44:00,,0818.7,5.00,0.00,25.4,23.9,00.0,34.2,27.3,10.5,-000.2,0008.94,0005.45,0005.06
2022-11-05 01:45:00,,0818.8,5.00,0.00,25.4,23.8,00.0,34.2,27.3,10.6,-000.3,0008.83,0005.38,0005.02
2022-11-05 01:46:00,,0818.8,5.00,0.00,25.4,23.7,00.0,34.2,27.2,10.6,-001.0,0008.72,0005.33,0004.97
2022-11-05 01:47:00,,0818.8,5.01,0.00,25.3,23.7,00.0,34.2,27.2,10.7,-000.8,0008.77,0005.31,0004.93
2022-11-05 01:48:00,,0818.7,5.01,0.00,25.3,23.7,00.0,34.2,27.2,10.8,-000.5,0008.96,0005.29,0004.93
2022-11-05 01:49:00,,0818.7,5.00,0.00,25.3,23.7,00.0,34.1,27.2,11.0,-000.7,0008.96,0005.33,0005.00
2022-11-05 01:50:00,,0818.7,4.98,0.00,25.3,23.7,00.0,34.1,27.2,11.1,-000.3,0009.04,0005.41,0005.08
2022-11-05 01:51:00,,0818.7,5.01,0.00,25.3,23.7,00.0,34.1,27.2,11.1,0000.2,0009.16,0005.50,0005.15
2022-11-05 01:52:00,,0818.8,5.01,0.00,25.3,23.7,00.0,34.1,27.2,11.1,0000.7,0009.56,0005.55,0005.21
2022-11-05 01:53:00,,0818.7,4.99,0.00,25.3,23.7,00.0,34.1,27.2,11.1,0001.7,0009.74,0005.61,0005.26
2022-11-05 01:54:00,,0818.6,5.01,0.00,25.3,23.8,00.0,34.1,27.2,11.4,0001.6,0009.78,0005.67,0005.33
2022-11-05 01:55:00,,0818.7,5.01,0.00,25.3,23.7,00.0,34.1,27.2,11.8,0001.7,0009.83,0005.76,0005.44
2022-11-05 01:56:00,,0818.7,5.00,0.00,25.3,23.7,00.0,34.1,27.2,11.9,0001.6,0009.72,0005.90,0005.58
2022-11-05 01:57:00,,0818.7,5.00,0.00,25.3,23.6,00.0,34.1,27.2,11.4,0001.0,0009.43,0005.98,0005.67
2022-11-05 01:58:00,,0818.7,5.00,0.00,25.3,23.6,00.0,34.1,27.2,11.5,0000.7,0009.20,0006.06,0005.75
2022-11-05 01:59:00,,0818.7,4.99,0.00,25.3,23.6,00.0,34.1,27.1,11.8,0000.2,0009.11,0006.17,0005.86
